Weather History for PATC - November, 2013

Change the Weather History Date:

Sunday, November 3, 2013

  Actual Average Record
Temperature  
Mean Temperature 23 °F -  
Max Temperature 28 °F 26 °F 43 °F (2003)
Min Temperature 18 °F 19 °F 1 °F (2000)
Degree Days  
Heating Degree Days 42    
Moisture  
Dew Point 23 °F    
Average Humidity 95    
Maximum Humidity 100    
Minimum Humidity 80    
Precipitation  
Precipitation 0.00 in - - ()
Sea Level Pressure  
Sea Level Pressure 29.44 in    
Wind  
Wind Speed 17 mph (NNE)    
Max Wind Speed 26 mph    
Max Gust Speed 102 mph    
Visibility 8 miles    
Events Fog , Snow    
Averages and records for this station are not official NWS values.
T = Trace of Precipitation, MM = Missing Value Source: NWS Daily Summary

Daily Weather History Graph

Daily Weather History Graph

Search for Another Location

Airport or City:

Trip Planner

Search our weather history database for the weather conditions in past years. The results will help you decide how hot, cold, wet, or windy it might be!

Date:

Astronomy

Nov. 03, 2013 Rise Set
Actual Time 10:12 AM AKST 5:36 PM AKST
Civil Twilight 9:14 AM AKST 6:34 PM AKST
Nautical Twilight 8:13 AM AKST 7:35 PM AKST
Astronomical Twilight 7:15 AM AKST 8:33 PM AKST
Moon 10:46 AM AKST (11/3) 5:41 PM AKST (11/3)
Length of Visible Light 9h 20m
Length of Day
7h 23m
New Moon, 0% of the Moon is Illuminated
Nov 3
New Moon
Nov 9
First Quarter
Nov 17
Full
Nov 25
Last Quarter
Dec 2
New

Hourly Weather History & Observations

Time (AKST) Temp. Windchill Dew Point Humidity Pressure Visibility Wind Dir Wind Speed Gust Speed Precip Events Conditions
12:26 AM 26.6 °F 15.2 °F 23.0 °F 86% 29.62 in 10.0 mi ENE 13.8 mph - N/A   Partly Cloudy
12:55 AM 26.1 °F 14.5 °F 23.4 °F 90% 29.61 in 10.0 mi ENE 13.8 mph - N/A   Mostly Cloudy
1:46 AM 28.4 °F 17.5 °F 24.8 °F 86% 29.61 in 10.0 mi ENE 13.8 mph - N/A   Overcast
1:55 AM 27.7 °F 16.6 °F 25.2 °F 90% 29.61 in 10.0 mi ENE 13.8 mph - N/A   Overcast
1:26 AM 24.8 °F 14.0 °F 23.0 °F 93% 29.60 in 10.0 mi NE 11.5 mph - N/A   Scattered Clouds
1:55 AM 24.8 °F 12.9 °F 23.0 °F 93% 29.59 in 10.0 mi ENE 13.8 mph - N/A   Clear
2:55 AM 24.6 °F 11.7 °F 23.2 °F 94% 29.57 in 10.0 mi NNE 16.1 mph - N/A   Clear
3:55 AM 23.4 °F 9.2 °F 22.3 °F 96% 29.55 in 10.0 mi NE 18.4 mph - N/A   Clear
4:26 AM 24.8 °F 10.3 °F 23.0 °F 93% 29.54 in 10.0 mi NE 20.7 mph - N/A   Mostly Cloudy
4:55 AM 24.1 °F 10.1 °F 20.5 °F 86% 29.53 in 10.0 mi NNE 18.4 mph - N/A   Scattered Clouds
5:26 AM 24.8 °F 10.3 °F 19.4 °F 80% 29.51 in 10.0 mi NNE 20.7 mph - N/A   Mostly Cloudy
5:46 AM 23.0 °F 8.0 °F 21.2 °F 93% 29.50 in 10.0 mi NNE 20.7 mph - N/A   Mostly Cloudy
5:55 AM 23.4 °F 8.8 °F 21.0 °F 91% 29.50 in 10.0 mi NNE 19.6 mph - N/A   Scattered Clouds
6:55 AM 22.8 °F 7.4 °F 20.3 °F 90% 29.48 in 10.0 mi NNE 21.9 mph - N/A   Partly Cloudy
7:55 AM 20.5 °F 3.9 °F 19.8 °F 97% 29.47 in 10.0 mi NNE 23.0 mph - N/A   Clear
8:55 AM 19.9 °F 2.8 °F 19.2 °F 97% 29.46 in 10.0 mi NNE 24.2 mph - N/A   Clear
9:55 AM 21.2 °F 4.9 °F 19.6 °F 93% 29.44 in 10.0 mi NNE 23.0 mph - N/A   Clear
10:46 AM 21.2 °F 4.5 °F 19.4 °F 93% 29.44 in 10.0 mi NNE 24.2 mph - N/A   Mostly Cloudy
10:55 AM 20.7 °F 3.8 °F 19.9 °F 97% 29.44 in 10.0 mi NNE 24.2 mph - N/A   Mostly Cloudy
11:26 AM 19.4 °F 1.4 °F 19.4 °F 100% 29.42 in 1.2 mi NNE 26.5 mph - N/A   Mostly Cloudy
11:55 AM 18.9 °F 1.4 °F 18.9 °F 100% 29.42 in 0.8 mi NNE 24.2 mph - N/A   Mist
12:07 PM 19.4 °F 2.8 °F 19.4 °F 100% 29.42 in 0.5 mi NNE 21.9 mph - N/A Fog Light Freezing Fog
12:27 PM 19.4 °F 2.5 °F 19.4 °F 100% 29.42 in 0.2 mi NNE 23.0 mph - N/A Fog Light Freezing Fog
12:55 PM 20.3 °F 3.7 °F 19.9 °F 99% 29.41 in 0.2 mi NNE 23.0 mph - N/A Fog Light Freezing Fog
1:55 PM 22.5 °F 8.9 °F 22.3 °F 99% 29.41 in 0.2 mi NNE 16.1 mph 173.8 mph N/A Fog Light Freezing Fog
2:07 PM 23.0 °F 9.2 °F 23.0 °F 100% 29.40 in 1.0 mi NNE 17.3 mph 102.4 mph N/A Snow Light Snow
2:27 PM 23.0 °F 8.3 °F 23.0 °F 100% 29.39 in 3.0 mi NNE 19.6 mph - N/A   Mostly Cloudy
2:47 PM 23.0 °F 8.7 °F 23.0 °F 100% 29.39 in 2.0 mi NNE 18.4 mph - N/A   Mostly Cloudy
2:55 PM 23.0 °F 8.7 °F 23.0 °F 100% 29.39 in 1.8 mi NNE 18.4 mph - N/A   Mostly Cloudy
3:07 PM 23.0 °F 9.6 °F 23.0 °F 100% 29.39 in 1.5 mi NNE 16.1 mph - N/A Snow Light Snow Showers
3:27 PM 24.8 °F 11.1 °F 23.0 °F 93% 29.38 in 10.0 mi NNE 18.4 mph - N/A Snow Light Snow Showers
3:47 PM 24.8 °F 11.5 °F 23.0 °F 93% 29.38 in 10.0 mi NNE 17.3 mph - N/A Snow Light Snow Showers
3:55 PM 23.9 °F 9.9 °F 23.5 °F 99% 29.38 in 10.0 mi NNE 18.4 mph - N/A Snow Light Snow Showers
4:27 PM 24.8 °F 12.9 °F 24.8 °F 100% 29.38 in 10.0 mi NNE 13.8 mph - N/A Snow Light Snow Showers
4:55 PM 24.3 °F 11.7 °F 24.1 °F 99% 29.38 in 10.0 mi NNE 15.0 mph - N/A   Overcast
5:27 PM 24.8 °F 12.4 °F 24.8 °F 100% 29.38 in 10.0 mi NNE 15.0 mph - N/A Snow Light Snow Showers
5:47 PM 24.8 °F 12.4 °F 24.8 °F 100% 29.38 in 10.0 mi NNE 15.0 mph - N/A   Mostly Cloudy
5:55 PM 24.8 °F 12.4 °F 24.6 °F 99% 29.38 in 10.0 mi NNE 15.0 mph - N/A   Mostly Cloudy
6:07 PM 24.8 °F 13.4 °F 24.8 °F 100% 29.38 in 10.0 mi NE 12.7 mph - N/A Snow Light Snow Showers
6:27 PM 24.8 °F 11.9 °F 24.8 °F 100% 29.37 in 10.0 mi NNE 16.1 mph - N/A   Mostly Cloudy
6:47 PM 26.6 °F 14.7 °F 26.6 °F 100% 29.38 in 10.0 mi NNE 15.0 mph - N/A   Overcast
6:55 PM 26.1 °F 13.1 °F 25.9 °F 99% 29.37 in 10.0 mi NE 17.3 mph - N/A   Overcast
7:27 PM 26.6 °F 13.1 °F 26.6 °F 100% 29.37 in 10.0 mi NNE 19.6 mph - N/A   Overcast
7:55 PM 27.3 °F 14.8 °F 25.9 °F 94% 29.37 in 10.0 mi NNE 17.3 mph - N/A Snow Light Snow Showers
8:07 PM 28.4 °F 16.6 °F 26.6 °F 93% 29.37 in 10.0 mi NNE 16.1 mph - N/A   Overcast
8:55 PM 28.4 °F 14.7 °F 25.9 °F 90% 29.36 in 10.0 mi NNE 21.9 mph - N/A   Overcast
9:07 PM 28.4 °F 15.1 °F 26.6 °F 93% 29.37 in 10.0 mi NNE 20.7 mph - N/A   Overcast
9:55 PM 28.2 °F 16.8 °F 25.0 °F 88% 29.38 in 10.0 mi North 15.0 mph - N/A   Mostly Cloudy
10:47 PM 28.4 °F 15.4 °F 26.6 °F 93% 29.38 in 1.2 mi North 19.6 mph - N/A Snow Light Snow
10:55 PM 27.9 °F 12.8 °F 26.4 °F 94% 29.38 in 7.0 mi North 26.5 mph 36.8 mph N/A Snow Light Snow Showers